{"data":{"norad_id":45141,"intl_designator":"2020-008L","name":"ONEWEB-0032","alt_names":[],"object_type":"PAYLOAD","status":"ACTIVE","operator":null,"country":"UK","launch_date":"2020-02-06","launch_site_code":"TYMSC","launch_vehicle":null,"mission":null,"orbit_class":"UNKNOWN","rcs_meters":null,"size_class":null,"mass_kg":null,"dimensions":null,"purposes":["comms"],"wikipedia_slug":null,"has_3d_model":false,"image_url":null,"decayed_at":null,"tle_current":{"epoch":"2026-05-25T04:05:42.971136Z","epoch_age_seconds":56813,"freshness":"FRESH","line1":"1 45141U 20008L   26145.17063624  .00000408  00000+0  11316-2 0  9997","line2":"2 45141  87.8851  40.8523 0002343  78.9932 281.1459 13.10370995305282","mean_motion":13.10370995,"eccentricity":0.0002343,"inclination_deg":87.8851,"raan_deg":40.8523,"arg_perigee_deg":78.9932,"mean_anomaly_deg":281.1459,"bstar":0.0011316,"rev_number":30528,"period_min":109.8925423025,"perigee_km":1219.9435480884,"apogee_km":1223.5048430447,"semimajor_km":7599.8611955665,"source":"CELESTRAK","updated_at":"2026-05-25T13:38:22.335022Z"}}}